Overview Statistics Trail Chart Weather Telemetry Raw packets
 

This is the latest recevied weather packets stored in our database for station/object KGRR-WX. If no packets are shown the sender has not sent any weather packets the latest 10 day(s).

<< 1 2 3 4 5 6 7 >>
Time Temp. Humidity Pressure Rain* Wind** Luminosity Snow
1788571807 21.11° C 86% 984.6 hPa 0 mm - - -
1788570906 21.11° C 86% 984.5 hPa 0 mm - - -
1788570005 21.11° C 86% 984.5 hPa 0 mm - - -
1788569106 21.67° C 84% 984.3 hPa 0 mm - - -
1788568207 21.67° C 83% 984.9 hPa 0 mm - - -
1788567305 22.22° C 83% 984.9 hPa 0 mm - - -
1788566407 22.78° C 83% 984.9 hPa 0 mm - - -
1788565505 22.78° C 78% 985.3 hPa 0 mm - - -
1788564605 23.33° C 77% 985.3 hPa 0 mm - - -
1788563705 24.44° C 77% 985.3 hPa 0 mm - - -
1788562806 24.44° C 77% 985.3 hPa 0 mm - - -
1788561904 24.44° C 80% 984.6 hPa 0 mm - - -
1788561005 24.44° C 78% 985.4 hPa 0 mm - - -
1788560104 25° C 78% 985.4 hPa 0 mm - - -
1788559210 25° C 78% 985.4 hPa 0 mm - - -
1788558312 25° C 80% 984.9 hPa 0 mm - - -
1788557411 25° C 79% 985 hPa 0 mm - - -
1788556511 25.56° C 79% 985.1 hPa 0 mm - - -
1788555611 25.56° C 79% 985.1 hPa 0 mm - - -
1788554710 25° C 82% 985.2 hPa 0 mm - - -
1788553810 25° C 81% 985.3 hPa 0 mm - - -
1788552904 25° C 81% 985.4 hPa 0 mm - - -
1788552010 25° C 79% 985.4 hPa 0 mm - - -
1788551111 25° C 84% 985.5 hPa 0 mm - - -
1788550210 24.44° C 84% 985.5 hPa 0 mm - - -

* Rain latest hour (hover to see other rain measurements)
** Current wind speed in m/s (hover to see current wind gust speed)